Regional Weather Roundup
Issued by NWS Jackson, KY

Home | Current Version | Previous Version | Graphics & Text | Print | Product List | Glossary On
Versions: 1 2 3 4 5 6 7 8 9 10 11 12 13 14 15 16 17 18 19 20 21 22 23 24 25 26 27 28 29 30 31 32 33 34 35 36 37 38 39 40 41 42 43 44 45 46 47 48 49 50
037
ASUS43 KJKL 231510
RWRJKL

EAST KENTUCKY HOURLY WEATHER ROUNDUP
NATIONAL WEATHER SERVICE JACKSON KY
1100 AM EDT TUE AUG 23 2016

NOTE: "FAIR" INDICATES FEW OR NO CLOUDS BELOW 12,000 FEET WITH
NO SIGNIFICANT WEATHER AND/OR OBSTRUCTIONS TO VISIBILITY.

* THESE REPORTS ARE NOT UNDER NWS QUALITY CONTROL AND MAY NOT
  REPORT WEATHER SUCH AS PRECIPITATION AND FOG.

KYZ079-080-083-085-087-088-110-112-115-119-120-231600
...EASTERN KENTUCKY...

CITY           SKY/WX    TMP DP  RH WIND       PRES   REMARKS
JACKSON        SUNNY     72  61  68 CALM      30.32S
LONDON         SUNNY     74  59  59 VRB5      30.31S
SOMERSET*      SUNNY     72  63  73 CALM      30.32S
MONTICELLO*    SUNNY    N/A N/A N/A E9        30.32R
WILLIAMSBURG*  SUNNY     73  63  68 SE6       30.32R
MIDDLESBORO*   SUNNY     67  62  83 CALM      30.34S
HARLAN APT*    SUNNY     68  59  73 CALM      30.34F
PIKE CO APT*     N/A     70  63  78 CALM      30.33S
BIG SANDY APT* SUNNY     72  63  73 CALM      30.33R
MOREHEAD APT*  SUNNY     75  59  57 SE6       30.34R
$$

KYZ035-036-041-042-044-050-067-078-099-231600
...CENTRAL KENTUCKY...

CITY           SKY/WX    TMP DP  RH WIND       PRES   REMARKS
MT STERLING*   SUNNY     73  59  60 SE5       30.33S
FLEMING/MASON* SUNNY     75  60  59 SE5       30.33S
DANVILLE*      SUNNY     73  63  68 CALM      30.32S
LEXINGTON      SUNNY     76  56  49 SE7       30.31S
FRANKFORT      SUNNY     77  61  57 SE7       30.29S
LOUISVILLE     MOSUNNY   77  59  53 S8        30.28S
LEBANON*         N/A     77  59  53 SE6       30.30S
GLASGOW*       CLOUDY    75  65  72 CALM      30.28S
BOWLING GREEN  SUNNY     74  65  73 CALM      30.28S
$$

KYZ091>093-OHZ055-061-077-WVZ005-015-034-035-042-231600
...SOUTHERN OHIO/WEST VIRGINIA...

CITY           SKY/WX    TMP DP  RH WIND       PRES   REMARKS
COVINGTON      MOSUNNY   75  60  59 S10       30.31R
COLUMBUS       MOSUNNY   73  55  53 S6        30.31S
DAYTON         MOSUNNY   74  57  55 S5        30.32S
WILMINGTON     SUNNY     73  60  63 VRB6      30.32R
HUNTINGTON     SUNNY     75  62  64 CALM      30.31S
CHARLESTON     MOSUNNY   74  61  63 N3        30.32S
PINEVILLE*     SUNNY     74  57  55 MISG      30.39S
BECKLEY        SUNNY     70  56  61 SE12G17   30.38R
BLUEFIELD      SUNNY     68  56  65 S7        30.40R
LOGAN CO APT*    N/A     73  63  68 CALM      30.33R
$$

VAZ002-007-008-TNZ017-027-036-066-071-231600
...SOUTHWEST VIRGINIA/EAST TENNESSEE...

CITY           SKY/WX    TMP DP  RH WIND       PRES   REMARKS
WISE*          SUNNY     73  54  49 S5        30.38S
JONESVILLE*      N/A     75  61  60 E5        30.35R
ABINGDON*      PTSUNNY   77  63  62 CALM      30.35S
BRISTOL        MOSUNNY   75  63  66 CALM      30.33S
MORRISTOWN*    SUNNY     75  63  64 CALM      30.31R
SEVIERVILLE*   SUNNY     75  63  64 CALM      30.29S
KNOXVILLE      MOSUNNY   75  64  68 CALM      30.29S
OAK RIDGE      SUNNY     76  61  59 VRB3      30.32R
CROSSVILLE     SUNNY     75  61  61 E5        30.34R
NASHVILLE      CLOUDY    77  64  64 CALM      30.28S
$$

...KEY TO REMARKS...
VSB - VISIBILITY IN MILES
WCI - WIND CHILL INDEX
HX  - HEAT INDEX

$$




USA.gov is the U.S. government's official web portal to all federal, state and local government web resources and services.